Theta_e
320 326 332 333 329 325 328 340 353 352 349 351 349 346 347 347 346 346 346 346 346 346 346 346 346 343 344 345 344 343 344 345 345 344 343 343 342 342 342 342 343 343 340 341
323 324 329 327 323 326 350 351 354 351 346 347 347 350 348 347 347 346 346 346 346 347 347 346 346 345 344 345 345 343 343 345 345 344 344 344 344 344 344 343 342 342 343 342
324 325 327 326 324 325 333 342 352 351 348 346 350 352 352 348 347 347 345 344 345 346 347 347 347 346 344 346 345 343 343 342 344 345 345 343 345 343 342 342 343 341 341 341
327 323 328 324 326 325 328 330 348 348 346 352 345 352 348 350 349 347 346 345 342 345 347 347 347 346 343 345 345 343 342 340 342 345 343 343 343 343 344 344 343 343 342 341
327 324 324 325 326 324 327 327 347 345 348 347 347 349 346 349 352 349 347 346 343 343 346 346 347 346 344 345 345 343 343 342 342 341 344 344 343 343 345 345 344 341 341 341
324 321 325 326 324 324 331 344 345 345 348 340 343 348 350 352 350 349 346 346 345 343 344 346 343 348 345 344 346 344 343 343 343 340 343 345 343 344 345 345 344 342 343 342
325 323 322 322 323 324 332 336 343 346 348 338 342 350 343 348 347 347 347 346 345 345 344 346 347 348 345 344 346 345 344 343 344 343 341 344 344 344 344 344 346 345 343 343
327 326 324 322 324 324 338 333 334 337 339 340 346 350 347 346 344 346 346 345 345 345 344 346 346 348 346 344 346 345 344 344 344 345 343 344 344 345 345 344 344 346 345 342
324 324 322 322 323 324 324 327 331 337 335 342 348 346 344 347 345 346 346 345 344 344 345 345 347 347 345 344 346 346 345 345 344 345 343 344 341 344 344 345 344 346 346 345
322 325 323 323 322 322 325 326 327 329 343 341 348 349 350 351 350 346 347 345 345 344 345 345 347 345 345 346 345 344 345 345 346 346 344 343 342 342 342 344 345 346 344 345
322 324 326 323 324 325 325 326 327 329 332 338 346 349 346 349 349 349 347 347 346 344 345 344 344 345 345 344 343 344 345 345 345 346 346 345 344 343 341 344 344 344 345 345
321 323 326 326 323 321 326 327 330 329 338 342 346 349 346 348 347 348 347 348 346 345 345 344 344 345 343 343 342 342 343 344 343 344 346 345 343 343 341 342 343 344 345 344
322 323 327 326 324 322 325 323 327 333 338 345 340 345 346 347 346 347 345 345 345 345 344 344 343 344 343 343 343 339 341 345 344 343 342 342 342 343 340 342 342 341 340 343
319 321 326 327 326 324 325 326 326 328 332 339 340 348 348 347 349 344 344 343 344 344 343 343 343 343 343 343 343 343 343 343 342 342 341 343 342 346 344 341 339 340 338 337
322 324 323 322 322 325 329 328 326 325 329 332 338 346 347 347 346 345 343 342 342 343 343 343 343 343 343 343 344 345 344 340 339 339 342 343 344 344 343 342 340 340 340 340
322 326 324 325 323 322 329 330 333 334 332 340 341 346 345 343 343 342 341 340 339 339 339 340 343 345 344 345 345 342 342 340 339 340 342 341 339 341 343 342 341 341 341 342
324 326 328 327 324 323 327 334 336 336 338 341 344 343 343 342 341 339 337 336 334 335 337 338 339 339 342 342 342 342 338 338 338 339 339 339 339 340 340 341 340 338 338 339
323 323 325 328 326 328 324 330 331 339 338 338 341 342 341 338 333 334 334 332 331 333 335 336 337 339 340 339 339 339 339 340 343 341 339 335 338 341 340 338 339 339 338 338
317 321 322 325 325 325 324 328 329 330 337 337 340 337 331 328 329 328 329 332 333 332 332 333 332 333 333 335 335 338 338 340 339 338 337 338 337 338 339 340 340 339 339 340
318 318 322 322 325 326 326 321 320 320 328 334 337 332 328 329 337 331 325 330 331 330 330 330 329 329 328 328 329 331 331 331 337 337 337 337 336 336 335 332 333 334 333 335
321 320 320 322 323 322 320 319 320 327 329 333 334 332 329 334 333 325 328 328 328 329 329 327 326 325 324 323 323 324 324 325 328 329 328 329 329 328 326 325 322 326 331 334
323 322 321 320 323 322 318 320 325 322 320 327 331 331 331 327 324 324 324 324 324 325 325 324 322 321 319 317 316 315 314 315 317 319 322 323 324 325 325 324 323 321 323 330
325 322 326 322 322 319 317 318 318 317 318 323 330 329 327 324 323 323 322 322 322 321 320 319 317 316 315 314 313 311 310 310 310 310 311 311 313 316 321 322 322 323 322 321
318 316 323 323 321 319 318 317 318 320 320 320 326 325 324 323 322 321 321 320 321 319 318 316 315 314 313 311 310 308 308 307 307 307 308 309 310 310 311 313 317 319 320 321
318 317 321 322 320 319 317 317 317 318 320 323 323 325 325 322 320 320 320 320 319 317 316 315 313 311 310 308 307 306 306 306 306 306 306 307 308 309 311 311 312 313 314 314
317 320 322 320 319 319 319 315 315 317 318 321 322 322 323 324 323 320 320 319 317 316 315 314 312 310 307 306 305 305 305 305 305 305 305 305 305 306 306 306 307 307 308 309
Wind_Speed
6 9 12 11 7 1 3 7 10 9 4 10 5 4 10 18 21 25 23 23 23 23 21 19 19 20 20 18 17 18 19 17 15 15 13 11 12 10 8 9 11 9 9 9
5 16 10 6 4 2 6 12 7 6 6 4 7 4 9 17 19 21 24 24 25 20 19 21 23 22 22 20 17 17 18 18 16 14 12 10 10 10 9 8 9 11 10 10
11 2 11 9 7 7 3 5 9 7 8 6 10 5 7 12 17 11 17 23 23 23 22 23 24 25 24 23 20 18 18 16 17 13 14 10 9 9 9 9 10 11 11 10
8 4 15 10 11 9 7 5 9 14 8 5 5 2 2 11 17 17 17 18 25 25 25 24 26 26 26 23 20 18 19 17 15 15 13 11 8 8 7 8 7 9 11 12
6 12 11 11 10 9 2 8 11 8 4 5 4 4 5 12 13 20 24 25 23 27 26 25 27 29 27 23 22 19 20 19 15 16 12 8 8 7 5 9 7 8 10 12
4 4 8 7 5 11 10 15 11 3 2 4 7 5 7 12 16 19 29 27 27 28 28 27 27 24 27 25 24 21 21 21 16 15 15 10 8 7 6 7 6 8 9 10
7 6 4 4 7 6 10 15 4 3 4 3 1 8 5 14 11 24 27 32 29 27 27 25 23 26 31 29 27 24 23 23 18 15 16 12 9 4 7 6 4 6 9 9
10 10 10 7 10 7 15 12 6 6 6 5 4 7 2 2 11 19 26 31 23 25 24 25 27 25 31 29 27 25 23 22 21 17 15 14 12 9 5 6 5 6 9 8
9 8 3 8 7 12 6 8 3 3 2 5 4 3 4 3 8 17 24 24 30 25 25 25 22 26 30 30 28 24 23 22 21 19 15 14 14 12 8 7 7 8 9 10
3 5 4 8 7 4 7 11 8 4 7 7 5 4 3 1 3 13 18 25 29 27 25 23 24 29 30 26 22 20 20 21 20 22 17 14 12 13 10 8 7 6 11 10
5 2 4 6 9 14 7 5 1 3 2 7 5 4 2 2 5 9 13 14 21 27 26 30 30 29 22 22 18 24 22 15 18 22 21 16 14 14 12 9 7 5 9 10
2 2 4 2 2 3 3 9 9 9 8 1 2 2 2 2 9 12 12 11 12 17 24 28 32 31 31 32 24 25 26 16 15 18 20 19 17 15 17 14 10 10 8 9
6 1 3 5 5 3 3 2 2 4 3 6 6 3 3 5 9 11 14 14 17 18 21 25 26 26 27 25 20 24 22 14 17 19 21 20 18 17 17 18 14 12 12 11
2 3 2 3 3 2 4 4 4 5 7 7 3 7 10 9 9 11 12 15 20 21 24 27 28 26 27 25 23 25 23 18 20 18 12 18 21 19 17 17 16 14 15 14
1 5 4 6 8 10 9 5 3 2 1 7 8 12 14 11 11 12 13 15 17 21 19 22 24 26 22 20 21 23 20 19 16 18 16 15 17 18 16 15 16 14 13 14
5 3 4 4 8 2 11 12 8 7 3 4 10 5 12 14 13 13 13 15 18 17 16 18 17 23 21 26 23 21 22 20 19 17 17 19 17 18 17 15 15 15 13 14
4 2 2 2 8 4 3 9 6 2 2 1 6 1 17 15 16 14 13 15 16 17 18 18 18 18 19 23 23 22 21 20 18 20 20 15 12 10 9 16 14 12 10 11
3 3 0 2 7 4 4 2 7 3 3 2 4 6 14 13 11 14 13 16 16 18 19 18 18 20 19 15 16 15 15 15 17 17 17 14 8 6 7 8 7 8 5 9
4 3 3 4 6 2 3 3 6 7 2 3 5 12 18 20 17 8 10 16 20 20 21 22 22 21 20 18 17 17 16 16 15 16 15 9 6 5 3 5 5 5 3 4
6 6 3 2 5 6 4 2 7 6 1 2 10 16 21 23 10 7 17 21 23 21 22 23 22 21 18 17 15 14 13 13 16 11 8 7 4 4 5 5 4 4 4 8
3 3 2 2 1 2 4 13 4 2 3 2 12 18 25 16 1 24 29 26 23 24 24 22 19 16 14 13 11 10 12 11 12 12 9 7 6 5 5 4 4 6 5 5
1 1 1 1 1 3 10 1 2 5 8 6 11 16 22 10 19 30 24 27 26 25 22 18 17 14 11 9 7 7 7 7 7 8 8 7 7 6 5 4 4 4 3 3
2 1 1 2 1 3 5 3 8 8 8 6 12 14 16 17 23 26 27 27 25 22 20 15 11 10 8 7 6 4 3 3 3 4 5 7 8 8 8 7 7 7 8 9
3 3 2 3 4 2 1 2 7 10 8 5 10 15 16 19 22 23 24 25 22 19 17 13 10 6 4 4 3 3 3 3 4 4 5 5 5 7 10 11 11 10 10 10
0 2 1 1 4 4 0 3 7 10 11 6 7 13 17 19 21 22 24 23 20 16 14 11 8 4 3 4 4 3 3 3 3 4 4 4 4 5 6 7 8 10 11 12
6 4 4 3 0 0 2 1 4 5 6 4 2 10 14 16 21 25 24 20 17 15 11 7 4 3 6 6 5 4 4 4 5 4 4 4 4 3 3 4 4 6 7 8
Wind_Direction
183 187 195 190 224 297 143 168 161 113 155 145 136 132 165 173 178 181 186 190 196 203 202 199 199 189 194 192 186 183 179 178 181 180 178 181 181 178 175 182 185 179 177 177
168 211 177 177 208 219 132 154 107 90 134 133 166 105 155 171 174 180 186 193 199 197 200 201 203 202 200 198 193 189 186 191 188 187 188 181 185 191 193 198 196 193 197 197
189 186 175 175 178 177 179 175 162 143 129 110 147 95 134 182 179 182 191 201 205 199 201 199 205 207 203 202 198 192 185 187 189 182 184 186 191 196 206 205 208 203 203 201
200 126 177 174 183 193 196 177 153 143 165 153 219 127 268 160 192 199 199 199 208 206 204 202 201 204 206 204 199 195 189 186 192 191 190 200 209 205 207 202 206 208 205 200
148 148 170 182 183 182 188 173 153 153 103 153 169 127 184 180 201 198 200 203 206 210 205 204 203 205 204 206 201 196 196 195 196 194 196 206 190 190 193 187 197 197 200 195
131 141 175 197 178 185 125 120 103 95 1 248 200 208 185 190 216 204 197 197 204 206 207 209 210 203 204 206 206 200 198 200 204 203 205 206 214 213 202 196 207 202 202 200
188 170 165 168 153 176 186 163 135 168 196 223 206 203 246 198 217 203 196 196 198 203 206 207 200 202 207 208 208 206 204 203 204 209 207 211 218 225 220 214 228 222 215 203
204 208 204 169 213 182 185 194 199 182 199 175 143 219 208 299 233 211 201 206 196 202 205 205 206 205 205 206 210 211 210 211 210 214 213 216 224 226 228 215 232 238 232 217
192 228 184 193 168 181 188 223 249 109 83 208 174 241 234 9 171 185 187 193 202 206 205 204 196 202 205 208 208 212 219 217 217 220 219 223 224 229 244 243 241 224 231 220
159 229 194 160 157 152 203 175 193 219 183 213 196 253 187 90 135 189 183 193 201 203 201 195 189 204 207 203 201 218 229 230 229 225 227 229 226 227 240 250 253 222 209 217
166 244 131 157 203 183 173 194 188 183 303 218 185 212 129 221 173 186 189 180 190 192 187 192 202 196 200 214 219 218 230 233 228 226 230 232 231 228 230 234 225 213 202 219
182 180 244 113 358 267 215 198 193 214 186 128 314 163 312 150 164 167 158 154 154 167 175 185 194 194 204 210 212 215 221 236 229 231 232 238 236 228 224 226 221 222 199 191
183 159 205 148 148 141 124 107 182 128 151 186 229 173 162 147 163 162 166 152 162 164 173 182 197 208 196 201 209 208 232 215 217 219 227 230 237 232 222 225 229 231 233 221
47 88 320 240 93 89 127 73 154 272 212 165 219 160 192 185 173 164 161 157 167 172 174 184 203 209 208 214 219 210 212 222 235 232 235 230 229 225 220 217 224 231 236 237
355 71 58 68 83 86 84 81 141 180 293 231 182 194 187 182 173 161 160 151 150 174 187 196 196 199 206 211 209 206 209 216 210 223 234 218 203 203 203 201 208 220 229 234
13 87 16 73 19 14 80 56 88 70 136 59 148 166 169 158 146 143 141 144 143 150 161 173 162 185 194 201 199 193 200 208 215 215 221 211 194 200 205 205 205 211 224 240
21 122 58 29 349 306 178 17 33 90 78 128 182 338 164 161 157 144 138 140 139 144 152 162 171 183 171 189 193 200 202 203 209 215 212 210 205 186 190 209 210 219 233 243
121 93 165 357 322 222 43 320 34 63 86 257 296 163 167 141 117 135 144 142 138 146 148 150 160 158 163 171 181 188 195 200 195 199 192 189 206 199 186 204 221 226 229 226
51 138 100 143 236 133 161 9 35 341 19 1 149 144 134 126 117 111 159 163 153 149 143 141 136 133 129 140 148 162 165 172 180 182 179 198 187 204 226 227 207 212 214 201
33 53 104 142 214 226 89 26 328 302 321 152 170 160 150 145 168 160 163 159 148 147 143 139 136 131 129 122 120 123 127 139 148 160 167 177 167 148 166 155 151 147 159 188
3 6 61 135 179 80 5 320 324 257 49 202 184 176 165 178 256 156 154 153 150 148 147 144 139 135 133 128 132 139 140 147 134 138 143 149 150 144 132 110 97 102 112 103
0 28 52 107 186 202 351 340 328 353 323 245 206 188 181 173 154 153 155 156 157 156 154 153 149 149 151 153 153 177 169 170 164 169 176 186 185 186 185 196 197 189 198 190
198 311 123 239 51 13 335 347 332 323 293 294 211 193 180 154 158 157 159 161 159 158 158 160 165 164 161 160 160 177 174 171 174 190 215 224 226 227 228 225 220 212 209 214
153 181 219 193 178 244 17 21 18 13 348 293 207 197 173 158 162 164 163 162 161 167 169 169 167 167 178 190 211 217 202 200 199 210 219 221 224 231 233 233 233 234 229 230
30 172 163 273 242 276 259 32 23 30 32 44 167 197 188 167 167 168 166 169 171 182 178 174 182 191 222 234 215 210 211 210 214 219 224 221 209 204 209 220 230 239 243 244
190 175 193 235 128 254 59 357 358 13 37 50 175 177 188 190 183 180 177 180 181 186 194 204 216 244 250 247 245 242 221 200 193 197 205 209 212 217 220 212 216 231 249 262